Omaha Offutt, NE

4:39 AM CDT on June 28, 2017 (GMT -0500)
Offutt Air Force Base

Weather History for KOFF - February, 2014

Change the Weather History Date:

Saturday, February 15, 2014

  Actual Average Record
Temperature  
Mean Temperature 36 °F -  
Max Temperature 55 °F 38 °F 62 °F (2000)
Min Temperature 18 °F 21 °F -4 °F (2007)
Degree Days  
Heating Degree Days 28    
Moisture  
Dew Point 23 °F    
Average Humidity 70    
Maximum Humidity 93    
Minimum Humidity 29    
Precipitation  
Precipitation 0.00 in - - ()
Sea Level Pressure  
Sea Level Pressure 29.97 in    
Wind  
Wind Speed 10 mph (SSE)    
Max Wind Speed 24 mph    
Max Gust Speed 45 mph    
Visibility 10 miles    
Events Snow    
Averages and records for this station are not official NWS values.
T = Trace of Precipitation, MM = Missing Value Source: NWS Daily Summary

Daily Weather History Graph

Daily Weather History Graph

Search for Another Location

Airport or City:

Trip Planner

Search our weather history database for the weather conditions in past years. The results will help you decide how hot, cold, wet, or windy it might be!

Date:

Astronomy

Feb. 15, 2014 Rise Set
Actual Time 7:18 AM CST 5:57 PM CST
Civil Twilight 6:49 AM CST 6:26 PM CST
Nautical Twilight 6:17 AM CST 6:58 PM CST
Astronomical Twilight 5:45 AM CST 7:30 PM CST
Moon 6:59 PM CST (2/15) 7:16 AM CST (2/15)
Length of Visible Light 11h 36m
Length of Day
10h 39m
Waxing Gibbous, 99% of the Moon is Illuminated
Feb 15
Waxing Gibbous
Feb 22
Last Quarter
Mar 1
New
Mar 8
First Quarter
Mar 16
Full

Hourly Weather History & Observations

Time (CST) Temp. Windchill Dew Point Humidity Pressure Visibility Wind Dir Wind Speed Gust Speed Precip Events Conditions
12:58 AM 18.3 °F 11.5 °F 12.2 °F 77% 30.12 in 10.0 mi South 4.6 mph - N/A   Clear
1:58 AM 18.1 °F 10.0 °F 12.0 °F 77% 30.11 in 10.0 mi ESE 5.8 mph - N/A   Clear
2:58 AM 18.9 °F 9.8 °F 13.1 °F 78% 30.09 in 10.0 mi SSE 6.9 mph - N/A   Clear
3:58 AM 19.2 °F 11.3 °F 13.6 °F 79% 30.04 in 10.0 mi SE 5.8 mph - N/A   Partly Cloudy
4:58 AM 21.4 °F 10.4 °F 14.7 °F 75% 30.03 in 10.0 mi SSE 10.4 mph - N/A   Clear
5:58 AM 23.0 °F 13.1 °F 15.4 °F 73% 30.00 in 10.0 mi SSE 9.2 mph - N/A   Clear
6:58 AM 23.0 °F 11.1 °F 16.9 °F 77% 29.97 in 10.0 mi SSE 12.7 mph - N/A   Mostly Cloudy
7:58 AM 23.5 °F 10.3 °F 17.8 °F 79% 29.95 in 10.0 mi ESE 16.1 mph - N/A   Overcast
8:58 AM 24.3 °F 13.3 °F 18.7 °F 79% 29.97 in 10.0 mi SE 11.5 mph - N/A   Overcast
9:02 AM 24.8 °F 14.0 °F 19.4 °F 80% 29.91 in 10.0 mi SE 11.5 mph - N/A Snow Light Snow
9:18 AM 24.8 °F 13.4 °F 19.4 °F 80% 29.92 in 10.0 mi SSE 12.7 mph - N/A   Overcast
9:39 AM 24.8 °F 16.1 °F 19.4 °F 80% 29.92 in 10.0 mi SE 8.1 mph - N/A Snow Light Snow
9:58 AM 25.5 °F 15.5 °F 19.2 °F 77% 29.98 in 10.0 mi SSE 10.4 mph - 0.00 in Snow Light Snow
10:28 AM 26.6 °F 15.7 °F 21.2 °F 80% 29.90 in 10.0 mi SSE 12.7 mph - N/A   Overcast
10:58 AM 27.3 °F 16.6 °F 20.8 °F 77% 29.93 in 10.0 mi SSE 12.7 mph - 0.00 in   Overcast
11:58 AM 31.1 °F 20.9 °F 22.5 °F 70% 29.91 in 10.0 mi South 13.8 mph - N/A   Scattered Clouds
12:58 PM 37.6 °F 31.6 °F 26.1 °F 63% 29.88 in 10.0 mi South 8.1 mph - N/A   Scattered Clouds
1:58 PM 43.3 °F 37.2 °F 29.3 °F 58% 29.85 in 10.0 mi SSW 11.5 mph - N/A   Clear
2:58 PM 47.7 °F - 31.1 °F 53% 29.82 in 10.0 mi SW 10.4 mph - N/A   Clear
3:58 PM 50.5 °F - 32.4 °F 50% 29.82 in 10.0 mi SW 11.5 mph - N/A   Clear
4:58 PM 54.3 °F - 22.5 °F 29% 29.83 in 10.0 mi WNW 23.0 mph 44.9 mph N/A   Partly Cloudy
4:59 PM 55.4 °F - 23.0 °F 29% 29.80 in 10.0 mi NW 24.2 mph 44.9 mph N/A   Partly Cloudy
5:58 PM 50.4 °F - 28.8 °F 43% 29.91 in 10.0 mi NW 23.0 mph 32.2 mph N/A   Clear
6:58 PM 46.0 °F 38.8 °F 29.3 °F 52% 29.98 in 10.0 mi NW 18.4 mph 26.5 mph N/A   Clear
7:58 PM 43.2 °F 35.9 °F 30.6 °F 61% 30.00 in 10.0 mi NNW 15.0 mph 24.2 mph N/A   Clear
8:58 PM 37.0 °F 29.3 °F 30.9 °F 79% 30.06 in 10.0 mi North 11.5 mph - N/A   Clear
9:58 PM 34.2 °F 26.8 °F 29.8 °F 84% 30.08 in 10.0 mi North 9.2 mph - N/A   Clear
10:48 PM 32.0 °F 24.8 °F 30.2 °F 93% 30.04 in 10.0 mi NNW 8.1 mph - N/A   Mostly Cloudy
10:58 PM 32.0 °F 24.8 °F 30.2 °F 93% 30.09 in 10.0 mi NNW 8.1 mph - N/A   Scattered Clouds
11:58 PM 31.6 °F 27.0 °F 28.4 °F 88% 30.11 in 10.0 mi NNW 4.6 mph - N/A   Scattered Clouds